#datint,netname,site,siteID,timestamp,IntT,BattV,AirT2,AirT,AirT_Avg,AirT_Max,AirT_Min,RH_Avg,RH_Max,RH_Min,EA_Avg,Td_Avg,Td_Max,Td_Min,WindS_Smp,WindS_Avg,WindD_Avg,WindD_SD,WindS_Max,ETo,ETr,SoilT4,SoilT8,SoilVWC8,SolarW_Avg,wetstate_Avg,wetT_Avg,Precip_accum,Precip_WPG,Precip_TB
15min,AgWx,beryljct,423,15DEC2018:00:00:00,37.9,12.96,36.8,36.6,36.5,37.3,36.3,48,49,45,0.340,18.5,19.1,17.6,2.609,3.7,335,2.5,5.5,0.00006,0.00010,32.9,34.7,21,0,0,37.7,8.79,0.00,0.00
15min,AgWx,beryljct,423,15DEC2018:00:15:00,37.7,12.96,37.1,37.3,36.6,37.3,36.1,46,49,44,0.331,17.8,18.8,17.2,4.231,3.4,292,24,4.7,0.00005,0.00009,32.9,34.7,22,0,0,37.7,8.79,0.00,0.00
15min,AgWx,beryljct,423,15DEC2018:00:30:00,37.6,12.93,37.3,36.9,37.0,37.4,36.5,46,48,44,0.352,18.0,19.0,17.1,2.916,3.3,298,53,5.7,0.00005,0.00008,32.9,34.7,22,0,0,37.9,8.79,0.00,0.00
15min,AgWx,beryljct,423,15DEC2018:00:45:00,37.6,12.94,37.8,38.5,37.1,38.5,35.5,44,53,38,0.303,17.2,20.1,15.2,2.828,4.4,344,26,6.4,0.00011,0.00017,32.9,34.7,22,0,0,37.9,8.79,0.00,0.00
15min,AgWx,beryljct,423,15DEC2018:01:00:00,37.8,12.94,39.3,38.3,38.9,39.5,38.2,38,40,35,0.310,15.1,16.0,14.2,0,2.0,298,13,5.1,-0.00003,-0.00002,32.9,34.7,22,0,0,39.2,8.79,0.00,0.00
15min,AgWx,beryljct,423,15DEC2018:01:15:00,37.7,12.94,37.9,36.7,37.7,38.8,36.6,42,48,37,0.336,16.5,19.4,14.5,0,1.0,310,0.1,2.3,-0.00015,-0.00020,32.9,34.7,22,0,0,37.8,8.79,0.00,0.00
15min,AgWx,beryljct,423,15DEC2018:01:30:00,37.4,12.93,36.0,35.8,35.7,37.1,34.0,50,58,43,0.334,18.6,20.8,16.7,3.442,2.0,39,32,4.5,-0.00007,-0.00007,32.9,34.7,22,0,0,36.4,8.79,0.00,0.00
15min,AgWx,beryljct,423,15DEC2018:01:45:00,36.9,12.92,35.1,33.2,35.0,36.0,33.2,51,59,47,0.381,18.8,20.7,17.4,2.433,2.7,359,4.0,4.1,-0.00001,0.00001,32.9,34.7,22,0,0,36.0,8.79,0.00,0.00
15min,AgWx,beryljct,423,15DEC2018:02:00:00,36.4,12.92,34.9,35.9,34.1,35.9,32.8,55,62,47,0.335,19.5,21.1,17.5,3.617,3.5,359,6.2,5.2,0.00002,0.00005,32.9,34.7,22,0,0,35.7,8.80,0.00,0.00
15min,AgWx,beryljct,423,15DEC2018:02:15:00,36.2,12.9,36.3,35.5,35.8,36.4,35.3,47,50,45,0.337,17.7,18.5,16.8,3.398,3.0,11,4.1,5.0,0.00002,0.00005,32.9,34.7,21,0,0,36.6,8.80,0.00,0.00
15min,AgWx,beryljct,423,15DEC2018:02:30:00,36.1,12.89,35.2,33.5,35.0,35.8,33.5,50,58,46,0.375,18.3,20.2,17.2,1.359,2.3,8.8,25,3.8,-0.00004,-0.00002,32.9,34.7,22,0,0,35.8,8.79,0.00,0.00
15min,AgWx,beryljct,423,15DEC2018:02:45:00,35.6,12.89,33.7,33.5,33.3,33.6,32.9,58,60,55,0.364,20.0,20.7,19.1,3.069,1.5,156,17,3.7,-0.00011,-0.00014,32.9,34.7,22,0,0,35.6,8.80,0.00,0.00
15min,AgWx,beryljct,423,15DEC2018:03:00:00,34.9,12.88,32.3,31.5,32.0,33.4,31.4,65,69,57,0.400,21.4,22.3,19.5,4.319,4.2,156,11,5.5,0.00001,0.00003,32.9,34.7,22,0,0,35.7,8.80,0.00,0.00
15min,AgWx,beryljct,423,15DEC2018:03:15:00,34.2,12.87,32.0,31.9,31.5,32.0,31.1,64,67,62,0.378,20.8,21.6,20.4,4.911,4.0,188,6.4,4.9,0.00001,0.00002,32.9,34.7,22,0,0,35.9,8.80,0.00,0.00
15min,AgWx,beryljct,423,15DEC2018:03:30:00,33.7,12.87,33.2,32.0,32.6,33.0,31.9,59,62,57,0.371,19.8,20.4,19.4,0.373,2.2,191,3.7,4.9,-0.00006,-0.00006,32.9,34.7,22,0,0,35.8,8.80,0.00,0.00
15min,AgWx,beryljct,423,15DEC2018:03:45:00,33.2,12.72,32.3,30.7,31.9,33.0,30.2,60,65,56,0.362,19.6,20.3,18.9,3.529,1.9,236,55,3.7,-0.00009,-0.00010,32.9,34.7,22,0,0,35.5,8.80,0.00,0.00
15min,AgWx,beryljct,423,15DEC2018:04:00:00,32.2,12.84,30.9,30.0,30.6,31.3,29.8,60,62,57,0.342,18.2,19.3,17.5,0,2.5,297,0.1,4.9,-0.00004,-0.00004,32.9,34.7,21,0,0,35.7,8.80,0.00,0.00
15min,AgWx,beryljct,423,15DEC2018:04:15:00,31.0,12.83,29.2,27.8,28.9,30.0,27.5,65,68,61,0.344,18.5,19.0,18.0,2.192,0.7,324,16,3.4,-0.00017,-0.00024,32.9,34.7,22,0,0,35.4,8.80,0.00,0.00
15min,AgWx,beryljct,423,15DEC2018:04:30:00,29.9,12.83,29.1,29.5,28.3,29.5,27.6,66,69,63,0.345,18.6,19.0,18.2,3.003,1.5,350,40,4.6,-0.00011,-0.00014,33.0,34.7,22,0,0,35.7,8.80,0.00,0.00
15min,AgWx,beryljct,423,15DEC2018:04:45:00,29.1,12.82,28.7,29.7,28.2,30.2,26.0,67,74,59,0.329,18.6,19.4,17.2,3.793,1.6,174,59,4.6,-0.00010,-0.00013,33.0,34.7,22,0,0,35.4,8.80,0.00,0.00
15min,AgWx,beryljct,423,15DEC2018:05:00:00,28.5,12.81,27.8,27.5,27.5,29.9,26.0,64,69,58,0.325,17.0,17.4,16.4,2.236,3.3,227,33,5.5,-0.00002,-0.00001,33.0,34.7,22,0,0,35.5,8.81,0.00,0.00
15min,AgWx,beryljct,423,15DEC2018:05:15:00,27.9,12.81,26.1,25.5,25.8,27.7,25.1,72,76,63,0.347,18.0,18.8,16.5,3.42,3.5,104,57,5.9,-0.00003,-0.00003,33.0,34.7,22,0,0,35.4,8.80,0.00,0.00
15min,AgWx,beryljct,423,15DEC2018:05:30:00,27.1,12.65,24.5,25.1,24.0,25.4,22.6,77,81,71,0.328,17.9,18.5,17.0,4.538,2.7,160,26,5.6,-0.00007,-0.00008,33.0,34.7,22,0,0,35.7,8.81,0.00,0.00
15min,AgWx,beryljct,423,15DEC2018:05:45:00,26.4,12.78,25.9,25.9,25.2,26.1,23.8,68,73,64,0.305,16.1,17.1,15.5,2.346,2.9,196,14,4.7,-0.00004,-0.00004,33.0,34.7,22,0,0,35.7,8.81,0.00,0.00
15min,AgWx,beryljct,423,15DEC2018:06:00:00,26.0,12.78,27.7,26.9,26.9,29.1,25.1,61,67,55,0.298,15.4,15.9,14.7,5.393,1.1,203,19,5.4,-0.00013,-0.00017,33.0,34.7,22,0,0,35.5,8.81,0.00,0.00
15min,AgWx,beryljct,423,15DEC2018:06:15:00,25.7,12.75,24.8,25.4,24.5,26.6,22.8,68,74,61,0.309,15.6,16.8,14.9,3.31,2.6,170,59,4.8,-0.00005,-0.00005,33.0,34.7,22,0,0,35.7,8.81,0.00,0.00
15min,AgWx,beryljct,423,15DEC2018:06:30:00,25.6,12.76,26.1,23.2,25.8,29.2,23.1,64,73,54,0.308,15.4,16.2,14.2,2.083,3.1,269,69,5.3,-0.00002,-0.00002,33.0,34.7,22,0,0,35.6,8.81,0.00,0.00
15min,AgWx,beryljct,423,15DEC2018:06:45:00,25.1,12.75,23.4,22.7,22.9,24.0,22.4,73,76,70,0.303,15.5,16.1,15.2,0,0.3,60,6.1,1.7,-0.00017,-0.00026,33.0,34.7,22,0,0,35.6,8.81,0.00,0.00
15min,AgWx,beryljct,423,15DEC2018:07:00:00,24.4,12.74,23.5,22.7,22.9,23.2,22.7,72,73,71,0.300,15.2,15.5,14.9,3.157,2.6,317,36,4.6,0.00010,0.00017,33.0,34.7,22,0,0,35.7,8.81,0.00,0.00
15min,AgWx,beryljct,423,15DEC2018:07:15:00,24.0,12.59,23.8,22.8,23.2,23.9,22.8,70,72,68,0.296,14.8,15.3,14.4,0,2.8,300,1.1,3.6,0.00011,0.00020,33.0,34.7,22,0,0,35.7,8.81,0.00,0.00
15min,AgWx,beryljct,423,15DEC2018:07:30:00,23.6,12.72,22.7,21.4,22.3,23.9,21.1,72,74,69,0.293,14.7,15.5,14.0,1.425,1.4,313,17,2.8,0.00006,0.00010,33.0,34.7,22,0,0,35.7,8.81,0.00,0.00
15min,AgWx,beryljct,423,15DEC2018:07:45:00,23.1,12.71,22.0,21.3,21.4,21.8,21.1,75,76,73,0.292,14.6,15.0,14.3,2.718,1.9,15,32,4.0,0.00007,0.00012,33.0,34.7,22,3,0,35.5,8.81,0.00,0.00
15min,AgWx,beryljct,423,15DEC2018:08:00:00,22.7,12.79,21.0,19.7,20.6,21.5,19.4,76,79,74,0.289,14.2,14.8,13.5,0.022,2.3,20,67,6.4,0.00011,0.00016,33.0,34.7,22,12,0,35.6,8.81,0.00,0.00
15min,AgWx,beryljct,423,15DEC2018:08:15:00,22.5,13.15,20.2,20.6,19.6,20.6,19.1,82,84,79,0.308,14.9,15.8,13.8,4.341,4.3,189,9.0,6.0,0.00022,0.00029,33.0,34.7,22,62,0,35.6,8.81,0.00,0.00
15min,AgWx,beryljct,423,15DEC2018:08:30:00,23.2,13.64,22.9,23.2,22.1,23.3,20.6,79,81,77,0.335,16.5,17.6,15.7,0.175,3.2,150,23,5.3,0.00031,0.00038,33.0,34.7,22,98,0,35.8,8.81,0.00,0.00
15min,AgWx,beryljct,423,15DEC2018:08:45:00,24.8,14.88,24.4,25.4,23.7,25.4,22.8,77,81,71,0.331,17.6,18.2,17.0,0.044,2.1,21,33,4.7,0.00040,0.00047,33.0,34.7,22,134,0,35.6,8.81,0.00,0.00
15min,AgWx,beryljct,423,15DEC2018:09:00:00,27.0,14.89,26.1,26.8,25.5,26.8,24.8,73,75,70,0.363,18.2,19.7,17.1,1.6,1.0,51,47,3.1,0.00051,0.00057,33.0,34.7,22,172,0,38.8,8.81,0.00,0.00
15min,AgWx,beryljct,423,15DEC2018:09:15:00,29.5,14.83,29.1,30.4,28.4,30.4,26.8,67,74,59,0.345,18.7,20.1,17.1,0,1.1,80,6.9,2.2,0.00068,0.00077,33.0,34.7,22,211,0,40.9,8.81,0.00,0.00
15min,AgWx,beryljct,423,15DEC2018:09:30:00,32.3,14.74,31.6,31.8,31.2,31.9,30.5,58,60,56,0.350,18.1,18.8,17.4,0.175,0.9,172,39,1.6,0.00085,0.00095,33.0,34.7,22,247,0,45.3,8.81,0.00,0.00
15min,AgWx,beryljct,423,15DEC2018:09:45:00,34.9,14.75,34.4,36.0,33.7,36.2,31.8,53,59,47,0.340,18.5,19.7,17.7,0,0.6,189,0.1,2.0,0.00102,0.00113,33.0,34.7,22,284,0,50.2,8.81,0.00,0.00
15min,AgWx,beryljct,423,15DEC2018:10:00:00,37.7,14.66,37.3,39.0,36.7,39.0,35.2,45,48,41,0.328,17.2,18.0,16.3,2.061,0.6,196,0.8,2.1,0.00122,0.00135,33.0,34.7,22,319,0,53.5,8.80,0.00,0.00
15min,AgWx,beryljct,423,15DEC2018:10:15:00,40.4,14.66,40.1,39.6,39.8,40.6,39.0,39,41,35,0.303,16.6,17.7,14.4,1.885,1.2,171,57,3.0,0.00147,0.00167,33.0,34.7,22,353,0,56.0,8.80,0.00,0.00
15min,AgWx,beryljct,423,15DEC2018:10:30:00,42.8,14.68,40.1,40.2,39.8,40.3,39.4,40,42,36,0.347,17.7,19.1,14.9,3.047,2.1,78,8.2,3.1,0.00164,0.00192,33.0,34.7,22,386,0,55.2,8.80,0.00,0.00
15min,AgWx,beryljct,423,15DEC2018:10:45:00,44.3,14.58,41.1,41.0,40.7,41.3,40.0,39,41,37,0.325,17.6,19.3,16.7,0.943,3.1,107,15,4.3,0.00183,0.00220,33.0,34.7,22,413,0,55.5,8.80,0.00,0.00
15min,AgWx,beryljct,423,15DEC2018:11:00:00,45.6,14.55,42.5,43.5,42.1,43.6,41.0,38,40,36,0.362,18.0,19.9,16.8,1.293,0.7,111,13,3.0,0.00184,0.00203,33.0,34.7,22,435,0,60.4,8.80,0.00,0.00
15min,AgWx,beryljct,423,15DEC2018:11:15:00,47.0,14.2,44.1,44.3,43.8,44.6,42.9,33,38,27,0.266,16.7,19.5,12.3,2.981,0.8,63,22,4.2,0.00198,0.00219,33.0,34.7,22,457,0,62.6,8.80,0.00,0.00
15min,AgWx,beryljct,423,15DEC2018:11:30:00,48.5,14.08,45.3,45.4,45.0,45.7,44.3,27,29,26,0.275,13.4,15.1,12.1,2.959,2.3,26,31,4.3,0.00219,0.00258,33.0,34.7,22,468,0,59.6,8.79,0.00,0.00
15min,AgWx,beryljct,423,15DEC2018:11:45:00,49.6,14.07,46.0,46.2,45.7,46.2,45.3,26,29,25,0.287,12.9,15.2,12.1,3.047,1.4,50,29,3.4,0.00209,0.00240,33.0,34.7,22,454,0,61.1,8.79,0.00,0.00
15min,AgWx,beryljct,423,15DEC2018:12:00:00,50.5,14.06,47.1,47.3,46.9,47.8,46.0,26,30,25,0.305,14.2,17.8,12.4,1.841,2.1,116,23,5.0,0.00235,0.00274,33.0,34.7,21,500,0,63.4,8.79,0.00,0.00
15min,AgWx,beryljct,423,15DEC2018:12:15:00,50.9,13.99,47.6,47.5,47.4,47.9,47.0,28,31,26,0.295,16.3,18.4,14.3,2.346,3.8,138,18,6.2,0.00251,0.00307,33.0,34.7,22,507,0,60.1,8.78,0.00,0.00
15min,AgWx,beryljct,423,15DEC2018:12:30:00,51.1,14.03,48.1,48.1,47.9,48.2,47.4,27,29,25,0.289,15.3,17.2,14.0,1.644,2.9,126,14,6.0,0.00249,0.00299,33.0,34.7,22,510,0,60.6,8.78,0.00,0.00
15min,AgWx,beryljct,423,15DEC2018:12:45:00,51.5,13.99,49.1,49.5,48.8,49.7,48.1,26,28,24,0.313,15.3,17.4,13.9,4.472,3.2,122,15,5.8,0.00255,0.00308,33.0,34.7,22,509,0,60.8,8.78,0.00,0.00
15min,AgWx,beryljct,423,15DEC2018:13:00:00,52.0,13.97,49.9,49.9,49.7,50.2,49.2,25,27,24,0.302,15.3,17.2,13.9,3.486,3.3,130,13,5.2,0.00257,0.00313,33.0,34.7,22,505,0,60.7,8.78,0.00,0.00
15min,AgWx,beryljct,423,15DEC2018:13:15:00,52.7,13.96,50.8,50.7,50.6,50.9,49.9,25,26,24,0.308,15.9,17.6,14.6,3.573,3.3,126,10,5.6,0.00257,0.00314,33.0,34.7,21,498,0,60.6,8.78,0.00,0.00
15min,AgWx,beryljct,423,15DEC2018:13:30:00,53.3,13.93,51.9,52.6,51.6,52.8,50.7,25,28,24,0.325,17.4,20.2,15.3,5.831,4.9,115,27,7.5,0.00268,0.00341,33.0,34.7,21,486,0,59.1,8.77,0.00,0.00
15min,AgWx,beryljct,423,15DEC2018:13:45:00,54.1,14.01,53.7,54.8,53.4,54.8,52.4,24,27,22,0.314,17.7,19.7,15.5,6.27,7.9,140,16,10.6,0.00294,0.00400,33.0,34.7,21,472,0,58.0,8.78,0.00,0.00
15min,AgWx,beryljct,423,15DEC2018:14:00:00,54.9,13.99,55.1,55.6,54.8,55.7,54.4,21,23,15,0.234,15.7,18.0,8.0,6.204,6.7,165,20,10.4,0.00280,0.00380,33.0,34.7,21,441,0,59.1,8.77,0.00,0.00
15min,AgWx,beryljct,423,15DEC2018:14:15:00,55.9,13.86,55.7,55.4,55.6,55.8,55.3,15,16,14,0.222,8.7,10.2,6.7,10.3,9.4,187,15,15.5,0.00310,0.00446,33.1,34.7,21,428,0,58.7,8.77,0.00,0.00
15min,AgWx,beryljct,423,15DEC2018:14:30:00,56.6,13.87,55.8,55.3,55.6,56.0,55.3,15,16,14,0.221,9.2,10.9,7.6,10.11,9.5,185,10,14.0,0.00299,0.00435,33.2,34.7,21,401,0,58.7,8.77,0.00,0.00
15min,AgWx,beryljct,423,15DEC2018:14:45:00,57.1,13.87,55.8,55.7,55.6,56.0,55.3,15,16,15,0.245,9.2,10.7,7.8,9.36,9.7,187,12,13.0,0.00291,0.00429,33.3,34.7,21,381,0,58.5,8.77,0.00,0.00
15min,AgWx,beryljct,423,15DEC2018:15:00:00,57.3,13.88,55.6,55.5,55.4,55.9,55.2,16,17,15,0.234,9.6,11.7,8.1,9.78,9.9,184,9.0,13.2,0.00278,0.00415,33.4,34.7,21,351,0,58.4,8.77,0.00,0.00
15min,AgWx,beryljct,423,15DEC2018:15:15:00,57.4,13.85,55.5,55.1,55.3,55.6,55.1,16,18,15,0.235,9.9,12.1,8.6,11.53,10.0,187,10,14.0,0.00262,0.00399,33.6,34.7,21,318,0,58.3,8.77,0.00,0.00
15min,AgWx,beryljct,423,15DEC2018:15:30:00,57.3,13.94,55.3,55.0,55.1,55.3,55.0,16,18,16,0.238,10.3,12.2,9.2,9.45,10.1,176,8.3,13.9,0.00246,0.00382,33.9,34.7,21,282,0,58.0,8.77,0.00,0.00
15min,AgWx,beryljct,423,15DEC2018:15:45:00,57.1,13.86,55.0,54.7,54.9,55.2,54.6,17,18,16,0.246,10.6,11.6,9.5,9.29,9.8,182,11,13.4,0.00221,0.00352,34.1,34.7,21,243,0,57.6,8.77,0.00,0.00
15min,AgWx,beryljct,423,15DEC2018:16:00:00,56.7,13.87,54.7,54.2,54.6,54.8,54.2,17,18,16,0.256,10.8,12.1,9.7,10.06,9.9,186,5.8,11.9,0.00205,0.00334,34.3,34.7,22,208,0,57.2,8.77,0.00,0.00
15min,AgWx,beryljct,423,15DEC2018:16:15:00,56.3,13.93,54.1,53.6,54.0,54.3,53.6,18,18,17,0.250,10.9,12.1,9.9,9.58,10.2,188,6.4,13.1,0.00189,0.00318,34.5,34.7,21,171,0,56.4,8.77,0.00,0.00
15min,AgWx,beryljct,423,15DEC2018:16:30:00,55.5,13.98,53.1,52.4,53.0,53.6,52.4,19,20,18,0.266,11.6,12.3,10.9,9.03,9.0,189,6.1,10.6,0.00086,0.00106,34.7,34.8,21,134,0,55.2,8.77,0.00,0.00
15min,AgWx,beryljct,423,15DEC2018:16:45:00,54.4,13.97,51.7,50.8,51.6,52.4,50.8,21,21,19,0.267,12.4,13.1,11.8,5.941,7.5,190,5.3,10.1,0.00070,0.00088,34.8,34.8,21,97,0,53.6,8.77,0.00,0.00
15min,AgWx,beryljct,423,15DEC2018:17:00:00,52.8,13.29,48.9,46.9,49.1,50.8,46.9,23,25,21,0.271,12.7,13.4,12.0,5.524,5.9,202,6.1,7.6,0.00046,0.00061,35.0,34.8,21,40,0,49.4,8.77,0.00,0.00
15min,AgWx,beryljct,423,15DEC2018:17:15:00,49.9,13.23,46.3,44.8,46.3,47.1,44.7,25,27,24,0.269,12.0,12.9,11.6,2.674,3.3,202,8.2,5.7,0.00017,0.00027,35.1,34.8,21,11,0,43.4,8.78,0.00,0.00
15min,AgWx,beryljct,423,15DEC2018:17:30:00,46.9,13.19,44.4,43.5,44.2,45.4,43.4,27,28,25,0.260,12.3,13.1,11.8,0,1.6,142,17,2.7,-0.00005,-0.00004,35.2,34.9,22,4,0,40.3,8.78,0.00,0.00
15min,AgWx,beryljct,423,15DEC2018:17:45:00,44.1,13.15,41.6,39.4,41.7,43.7,39.3,31,36,27,0.293,13.0,14.5,11.8,0.285,0.9,254,52,2.7,-0.00018,-0.00023,35.3,34.9,22,0,0,37.6,8.78,0.00,0.00
15min,AgWx,beryljct,423,15DEC2018:18:00:00,41.8,13.15,39.8,38.6,39.6,40.7,38.6,36,38,33,0.300,14.5,15.1,14.0,1.929,1.8,250,7.8,3.1,-0.00006,-0.00005,35.3,34.9,21,0,0,35.6,8.78,0.00,0.00
15min,AgWx,beryljct,423,15DEC2018:18:15:00,40.1,13.12,37.8,34.9,37.9,39.3,34.9,38,44,35,0.298,14.8,15.3,14.0,4.516,2.5,200,54,4.8,0.00001,0.00004,35.3,35.0,21,0,0,35.2,8.78,0.00,0.00
15min,AgWx,beryljct,423,15DEC2018:18:30:00,38.1,13.11,32.1,31.2,32.2,34.7,31.1,53,57,44,0.331,16.8,17.5,15.0,5.502,5.3,143,5.7,7.3,0.00010,0.00013,35.3,35.0,21,0,0,35.4,8.78,0.00,0.00
15min,AgWx,beryljct,423,15DEC2018:18:45:00,36.4,13.1,33.0,33.6,32.3,33.7,31.1,51,56,45,0.295,16.2,17.4,14.3,3.486,5.4,150,7.2,7.3,0.00011,0.00015,35.2,35.0,21,0,0,35.8,8.79,0.00,0.00
15min,AgWx,beryljct,423,15DEC2018:19:00:00,35.2,12.94,34.0,31.9,33.8,34.1,31.9,45,51,44,0.312,14.6,16.0,14.3,0,2.6,168,10,3.5,0.00000,0.00003,35.1,35.1,21,0,0,35.5,8.79,0.00,0.00
15min,AgWx,beryljct,423,15DEC2018:19:15:00,34.3,13.06,34.3,36.6,33.2,36.6,30.7,47,56,39,0.288,15.2,16.8,14.1,1.052,1.5,127,0.1,2.9,-0.00009,-0.00011,35.1,35.1,21,0,0,35.6,8.79,0.00,0.00
15min,AgWx,beryljct,423,15DEC2018:19:30:00,34.2,13.07,38.7,40.0,37.8,40.0,36.6,37,39,33,0.279,13.9,14.3,13.4,3.946,3.2,127,6.9,5.5,0.00007,0.00012,35.0,35.1,21,0,0,36.0,8.79,0.00,0.00
15min,AgWx,beryljct,423,15DEC2018:19:45:00,34.7,13.06,37.5,35.2,37.6,40.7,34.0,38,46,32,0.290,14.2,15.7,13.2,0.855,2.3,170,27,3.9,0.00000,0.00003,34.9,35.1,21,0,0,35.8,8.79,0.00,0.00
15min,AgWx,beryljct,423,15DEC2018:20:00:00,34.0,13.04,30.5,28.9,30.8,35.3,28.1,52,59,42,0.293,14.9,15.6,14.2,3.376,3.2,316,42,6.0,0.00001,0.00004,34.9,35.2,21,0,0,35.6,8.79,0.00,0.00
15min,AgWx,beryljct,423,15DEC2018:20:15:00,32.7,13.02,28.3,28.1,27.9,28.8,27.5,58,60,54,0.296,14.9,15.7,14.3,1.754,2.0,6.4,33,3.4,-0.00006,-0.00007,34.8,35.2,21,0,0,35.9,8.79,0.00,0.00
15min,AgWx,beryljct,423,15DEC2018:20:30:00,31.5,12.87,27.9,27.8,27.4,28.8,26.2,59,62,56,0.287,14.8,15.9,14.0,3.529,1.9,355,26,3.7,-0.00007,-0.00008,34.8,35.2,21,0,0,35.6,8.79,0.00,0.00
15min,AgWx,beryljct,423,15DEC2018:20:45:00,30.6,13,27.9,27.5,27.3,28.0,26.6,58,61,55,0.293,14.5,15.0,14.0,1.688,3.1,304,1.1,4.0,-0.00001,0.00000,34.7,35.2,21,0,0,35.7,8.80,0.00,0.00
15min,AgWx,beryljct,423,15DEC2018:21:00:00,29.8,13,29.7,28.1,29.0,30.1,27.5,54,57,51,0.299,14.4,15.4,14.0,3.529,1.6,293,43,3.9,-0.00009,-0.00010,34.6,35.2,21,0,0,35.5,8.79,0.00,0.00
15min,AgWx,beryljct,423,15DEC2018:21:15:00,29.3,12.99,27.1,24.9,27.1,29.2,24.9,61,70,55,0.321,15.4,16.6,14.6,3.727,2.6,167,14,3.9,-0.00004,-0.00003,34.6,35.2,21,0,0,35.5,8.80,0.00,0.00
15min,AgWx,beryljct,423,15DEC2018:21:30:00,28.6,12.98,24.5,23.1,24.2,25.2,23.1,72,75,67,0.311,16.3,16.9,15.7,4.187,3.9,150,25,4.8,-0.00002,-0.00001,34.5,35.2,21,0,0,35.6,8.80,0.00,0.00
15min,AgWx,beryljct,423,15DEC2018:21:45:00,27.7,12.96,24.3,25.3,23.5,25.3,22.7,70,73,64,0.299,15.3,16.0,14.9,3.003,3.1,190,6.7,4.3,-0.00004,-0.00004,34.5,35.2,21,0,0,35.6,8.80,0.00,0.00
15min,AgWx,beryljct,423,15DEC2018:22:00:00,27.3,12.96,27.2,28.4,26.3,28.5,25.1,62,65,57,0.300,15.0,15.3,14.5,3.266,4.3,175,3.2,5.5,0.00002,0.00004,34.4,35.2,21,0,0,35.7,8.80,0.00,0.00
15min,AgWx,beryljct,423,15DEC2018:22:15:00,27.2,12.95,26.7,27.5,26.3,28.4,25.1,62,65,57,0.299,15.1,15.5,14.9,2.433,2.1,182,2.0,3.3,-0.00007,-0.00007,34.4,35.3,21,0,0,35.6,8.80,0.00,0.00
15min,AgWx,beryljct,423,15DEC2018:22:30:00,27.2,12.81,27.5,26.7,27.1,29.2,25.7,61,66,55,0.304,15.4,15.9,14.8,0.899,1.2,213,23,2.7,-0.00012,-0.00015,34.3,35.3,21,0,0,35.5,8.80,0.00,0.00
15min,AgWx,beryljct,423,15DEC2018:22:45:00,27.0,12.92,23.8,21.2,23.9,26.7,21.1,67,73,62,0.286,14.4,15.3,13.5,3.464,3.2,311,28,4.9,-0.00003,-0.00002,34.3,35.3,21,0,0,35.4,8.80,0.00,0.00
15min,AgWx,beryljct,423,15DEC2018:23:00:00,26.2,12.92,22.1,22.1,21.4,22.3,20.7,74,76,72,0.293,14.5,15.2,13.9,1.008,2.1,327,31,4.2,-0.00007,-0.00009,34.2,35.3,21,0,0,35.5,8.80,0.00,0.00
15min,AgWx,beryljct,423,15DEC2018:23:15:00,25.6,12.91,24.6,24.2,23.7,25.7,22.0,68,72,63,0.295,14.8,15.4,14.1,0.877,2.0,329,2.4,4.4,-0.00008,-0.00009,34.2,35.3,21,0,0,35.7,8.81,0.00,0.00
15min,AgWx,beryljct,423,15DEC2018:23:30:00,25.2,12.91,24.0,22.9,23.6,25.3,22.4,70,74,65,0.306,15.1,15.7,14.7,1.513,0.8,315,44,2.9,-0.00014,-0.00019,34.2,35.3,21,0,0,35.6,8.81,0.00,0.00
15min,AgWx,bigpiney,439,15DEC2018:00:00:00,14.4,12.64,15.2,15.0,14.7,15.0,14.5,83,84,82,0.249,10.5,10.9,10.3,4.121,2.3,218,26,4.1,-0.00007,-0.00009,30.7,32.8,40,0,0,0.0,.,0.00,0.00
15min,AgWx,bigpiney,439,15DEC2018:00:15:00,15.1,12.62,15.6,15.2,15.1,15.3,15.0,82,83,81,0.246,10.7,10.9,10.4,2.872,1.8,228,17,4.1,-0.00008,-0.00010,30.6,32.8,40,0,0,0.0,.,0.00,0.00
15min,AgWx,bigpiney,439,15DEC2018:00:30:00,15.6,12.61,15.7,14.8,15.3,15.4,14.8,83,83,81,0.247,10.9,11.2,10.5,1.754,2.1,191,47,3.7,-0.00008,-0.00009,30.6,32.8,40,0,0,0.0,.,0.00,0.00
15min,AgWx,bigpiney,439,15DEC2018:00:45:00,15.7,12.6,12.7,11.4,12.7,14.9,11.4,84,86,83,0.219,8.9,10.7,7.9,3.486,1.3,30,36,3.5,-0.00009,-0.00012,30.6,32.8,40,0,0,0.0,.,0.00,0.00
15min,AgWx,bigpiney,439,15DEC2018:01:00:00,15.1,12.58,10.0,8.8,9.9,11.4,8.8,86,86,86,0.195,6.5,8.0,5.4,1.008,3.2,58,20,6.1,-0.00005,-0.00005,30.6,32.8,40,0,0,0.0,.,0.00,0.00
15min,AgWx,bigpiney,439,15DEC2018:01:15:00,14.2,12.58,8.4,7.6,8.1,8.8,7.6,86,86,86,0.185,4.8,5.4,4.3,2.324,2.0,102,26,3.6,-0.00007,-0.00008,30.6,32.7,40,0,0,0.0,.,0.00,0.00
15min,AgWx,bigpiney,439,15DEC2018:01:30:00,13.3,12.57,8.3,8.0,7.8,8.2,7.5,86,87,86,0.189,4.6,4.8,4.2,1.25,1.8,168,53,3.6,-0.00007,-0.00009,30.6,32.8,40,0,0,0.0,.,0.00,0.00
15min,AgWx,bigpiney,439,15DEC2018:01:45:00,12.6,12.56,8.3,8.2,7.8,8.2,7.5,86,87,86,0.190,4.6,4.9,4.2,2.346,2.2,207,45,3.8,-0.00006,-0.00007,30.6,32.8,40,0,0,0.0,.,0.00,0.00
15min,AgWx,bigpiney,439,15DEC2018:02:00:00,11.8,12.54,7.6,6.3,7.3,8.3,6.3,86,87,83,0.171,3.9,4.9,2.5,0.921,2.9,215,31,7.5,-0.00005,-0.00005,30.6,32.8,40,0,0,0.0,.,0.00,0.00
15min,AgWx,bigpiney,439,15DEC2018:02:15:00,11.0,12.54,8.1,8.2,7.4,8.9,6.1,85,88,84,0.188,4.0,6.1,2.2,3.573,2.2,247,38,6.7,-0.00006,-0.00007,30.6,32.7,40,0,0,0.0,.,0.00,0.00
15min,AgWx,bigpiney,439,15DEC2018:02:30:00,10.4,12.52,7.3,5.3,7.1,8.8,5.3,85,88,83,0.164,3.6,5.5,1.7,0.723,2.1,277,47,4.3,-0.00006,-0.00007,30.6,32.7,40,0,0,0.0,.,0.00,0.00
15min,AgWx,bigpiney,439,15DEC2018:02:45:00,9.8,12.5,6.0,6.4,5.4,6.4,4.8,87,89,85,0.181,2.3,3.8,1.4,0,1.6,343,93,4.3,-0.00007,-0.00008,30.6,32.8,40,0,0,0.0,.,0.00,0.00
15min,AgWx,bigpiney,439,15DEC2018:03:00:00,9.4,12.51,6.0,5.8,5.6,6.6,4.9,87,89,85,0.174,2.5,4.1,1.4,1.841,2.1,231,29,4.1,-0.00006,-0.00007,30.6,32.8,40,0,0,0.0,.,0.00,0.00
15min,AgWx,bigpiney,439,15DEC2018:03:15:00,8.9,12.49,6.3,5.3,5.8,7.3,5.1,87,90,85,0.166,2.7,5.0,1.7,1.535,1.5,238,37,5.8,-0.00007,-0.00009,30.6,32.8,40,0,0,0.0,.,0.00,0.00
15min,AgWx,bigpiney,439,15DEC2018:03:30:00,8.6,12.46,6.5,6.1,6.0,6.8,5.2,87,89,85,0.176,2.9,4.2,1.8,3.223,1.9,281,57,4.6,-0.00006,-0.00008,30.6,32.8,40,0,0,0.0,.,0.00,0.00
15min,AgWx,bigpiney,439,15DEC2018:03:45:00,8.2,12.48,6.9,7.6,6.2,7.6,5.2,86,88,83,0.189,2.9,4.7,1.6,1.863,2.6,238,21,4.4,-0.00005,-0.00006,30.6,32.8,40,0,0,0.0,.,0.00,0.00
15min,AgWx,bigpiney,439,15DEC2018:04:00:00,7.8,12.47,4.5,3.3,4.5,8.0,3.2,84,88,82,0.150,0.8,5.2,-0.7,0.066,1.4,297,49,4.5,-0.00007,-0.00009,30.5,32.8,40,0,0,0.0,.,0.00,0.00
15min,AgWx,bigpiney,439,15DEC2018:04:15:00,7.5,12.47,4.2,4.6,3.6,5.3,2.9,85,89,84,0.161,0.2,2.7,-0.9,1.907,1.8,236,27,3.8,-0.00006,-0.00007,30.5,32.8,40,0,0,0.0,.,0.00,0.00
15min,AgWx,bigpiney,439,15DEC2018:04:30:00,7.2,12.46,4.8,4.3,4.3,4.8,3.8,85,87,84,0.157,0.9,1.7,-0.0,2.543,3.1,227,23,5.5,-0.00004,-0.00004,30.5,32.8,40,0,0,0.0,.,0.00,0.00
15min,AgWx,bigpiney,439,15DEC2018:04:45:00,6.9,12.44,4.1,4.1,3.6,4.3,3.2,84,85,84,0.155,-0.1,0.6,-0.6,2.17,2.4,220,11,5.6,-0.00005,-0.00005,30.5,32.8,40,0,0,0.0,.,0.00,0.00
15min,AgWx,bigpiney,439,15DEC2018:05:00:00,6.6,12.44,4.3,4.0,3.7,4.4,3.2,84,85,82,0.154,-0.1,0.6,-1.1,0.175,1.6,269,67,4.7,-0.00006,-0.00008,30.5,32.7,40,0,0,0.0,.,0.00,0.00
15min,AgWx,bigpiney,439,15DEC2018:05:15:00,6.3,12.45,3.4,2.6,3.1,4.1,2.4,84,84,83,0.144,-0.8,0.3,-1.6,2.916,2.3,232,21,4.2,-0.00005,-0.00005,30.5,32.8,40,0,0,0.0,.,0.00,0.00
15min,AgWx,bigpiney,439,15DEC2018:05:30:00,5.8,12.44,2.2,1.2,1.8,2.8,1.1,84,85,83,0.136,-2.0,-0.7,-2.7,2.609,3.4,286,32,5.5,-0.00003,-0.00003,30.5,32.8,39,0,0,0.0,.,0.00,0.00
15min,AgWx,bigpiney,439,15DEC2018:05:45:00,5.3,12.44,0.7,-1.1,0.4,1.2,-1.1,85,87,84,0.122,-3.0,-2.1,-4.6,0,2.9,7.8,53,5.8,-0.00004,-0.00004,30.5,32.8,39,0,0,0.0,.,0.00,0.00
15min,AgWx,bigpiney,439,15DEC2018:06:00:00,4.6,12.42,0.3,-1.2,-0.2,1.0,-1.2,87,88,84,0.120,-3.3,-1.7,-4.9,3.551,2.6,238,53,5.3,-0.00004,-0.00005,30.5,32.7,39,0,0,0.0,.,0.00,0.00
15min,AgWx,bigpiney,439,15DEC2018:06:15:00,4.0,12.42,1.3,1.6,0.4,2.1,-1.1,87,88,84,0.142,-2.7,-0.6,-4.9,5.59,3.4,237,30,6.5,-0.00003,-0.00003,30.4,32.8,39,0,0,0.0,.,0.00,0.00
15min,AgWx,bigpiney,439,15DEC2018:06:30:00,3.7,12.42,2.4,0.1,2.0,3.4,0.1,86,88,81,0.123,-1.2,0.5,-4.4,8.77,5.6,255,56,9.9,-0.00002,-0.00002,30.4,32.8,39,0,0,0.0,.,0.00,0.00
15min,AgWx,bigpiney,439,15DEC2018:06:45:00,3.6,12.41,-0.7,-1.2,-1.0,-0.1,-1.2,84,86,81,0.123,-4.6,-4.2,-5.6,0.022,5.4,28,21,12.1,-0.00001,-0.00001,30.4,32.8,39,0,0,0.0,.,0.00,0.00
15min,AgWx,bigpiney,439,15DEC2018:07:00:00,3.2,12.41,0.1,-0.4,-0.6,-0.2,-1.1,86,87,86,0.128,-3.7,-3.1,-4.4,0.636,2.0,297,21,4.9,-0.00005,-0.00006,30.4,32.8,39,0,0,0.0,.,0.00,0.00
15min,AgWx,bigpiney,439,15DEC2018:07:15:00,2.9,12.4,0.8,-1.1,0.2,1.6,-1.7,86,89,81,0.120,-3.0,-1.2,-6.1,3.771,2.2,251,49,5.8,-0.00005,-0.00005,30.4,32.8,39,0,0,0.0,.,0.00,0.00
15min,AgWx,bigpiney,439,15DEC2018:07:30:00,2.5,12.39,3.2,0.6,2.4,4.6,-0.8,87,91,82,0.130,-0.6,2.1,-4.5,1.513,1.7,269,30,3.5,-0.00006,-0.00007,30.4,32.8,39,0,0,0.0,.,0.00,0.00
15min,AgWx,bigpiney,439,15DEC2018:07:45:00,2.3,12.46,2.1,-0.5,1.6,3.6,-0.6,85,89,83,0.124,-1.8,0.7,-4.4,3.201,2.8,255,54,8.4,-0.00004,-0.00004,30.4,32.8,39,3,0,0.0,.,0.00,0.00
15min,AgWx,bigpiney,439,15DEC2018:08:00:00,2.2,14.99,0.9,1.2,0.2,1.5,-0.6,85,86,84,0.136,-3.4,-1.8,-4.4,3.902,3.4,229,43,7.7,-0.00008,-0.00007,30.3,32.8,39,20,0,0.0,.,0.00,0.00
15min,AgWx,bigpiney,439,15DEC2018:08:15:00,2.5,14.98,2.3,2.7,1.6,2.8,1.0,85,86,84,0.146,-2.0,-0.4,-2.6,1.776,3.7,240,15,7.5,-0.00003,-0.00001,30.3,32.8,39,54,0,0.0,.,0.00,0.00